DW3607 Weather Reports


time (UTC)temp
C
wind
direction
speed
KPH
gust
KPH
rain 1hr
cm
rain 24hr
cm
rain mn
cm
humidity
%
barometer
mb
20260510041704 11 244 0.0 0.0 0.00 0.66 0.00 97 1036.2
20260510041205 11 244 0.0 0.0 0.00 0.66 0.00 97 1036.1
20260510035205 12 244 0.0 0.0 0.00 0.66 0.66 96 1035.9
20260510034704 12 244 0.0 0.0 0.00 0.66 0.66 97 1036.0
20260510034204 12 244 0.0 0.0 0.00 0.66 0.66 97 1036.1
20260510033705 12 244 0.0 0.0 0.00 0.66 0.66 96 1036.1
20260510032205 12 244 0.0 0.0 0.00 0.66 0.66 97 1036.0
20260510031705 12 247 0.0 0.0 0.00 0.66 0.66 97 1036.3
20260510030704 11 271 0.0 0.0 0.00 0.66 0.66 97 1035.9
20260510025704 11 271 0.0 0.0 0.00 0.66 0.66 97 1035.4
20260510024704 11 271 0.0 0.0 0.00 0.66 0.66 98 1035.5
20260510024205 11 271 0.0 0.0 0.00 0.66 0.66 98 1035.6
20260510023705 11 271 0.0 0.0 0.00 0.66 0.66 97 1035.8
20260510023205 11 271 0.0 0.0 0.00 0.66 0.66 98 1035.8
20260510022705 12 271 0.0 0.0 0.00 0.66 0.66 98 1035.8
20260510021705 12 271 0.0 0.0 0.00 0.66 0.66 98 1035.8
20260510020705 12 271 0.0 0.0 0.00 0.66 0.66 98 1035.8
20260510020204 12 271 0.0 0.0 0.00 0.66 0.66 98 1035.8
20260510015704 12 271 0.0 0.0 0.00 0.66 0.66 98 1035.8
20260510015205 12 271 0.0 0.0 0.00 0.66 0.66 98 1035.7
20260510014704 12 271 0.0 0.0 0.00 0.66 0.66 98 1035.6
20260510014205 12 271 0.0 0.0 0.00 0.69 0.66 98 1035.5
20260510013705 12 271 0.0 0.0 0.00 0.69 0.66 98 1035.4
20260510013205 12 271 0.0 0.0 0.00 0.69 0.66 98 1035.3
20260510012704 12 271 0.0 0.0 0.00 0.69 0.66 98 1035.3
20260510011704 12 271 0.0 0.0 0.00 0.69 0.66 99 1035.1
20260510011204 12 271 0.0 0.0 0.00 0.69 0.66 99 1035.2
20260510010205 12 271 0.0 0.0 0.00 0.74 0.66 99 1035.1
20260510005704 12 273 0.0 0.0 0.00 0.74 0.66 99 1035.1
20260510005204 12 273 0.0 0.0 0.00 0.76 0.66 99 1035.2
20260510004705 12 273 0.0 0.0 0.00 0.79 0.66 99 1035.1
20260510004204 12 273 0.0 0.0 0.00 0.79 0.66 99 1035.0
20260510003704 12 273 0.0 0.0 0.00 0.81 0.66 99 1034.9
20260510002704 13 273 0.0 0.0 0.10 0.84 0.66 99 1034.8
20260510002205 13 273 0.0 0.0 0.13 0.84 0.66 99 1034.8
20260510001704 13 273 0.0 0.0 0.15 0.84 0.66 99 1034.8
20260510001205 13 273 0.0 0.0 0.18 0.86 0.66 100 1034.8
20260510000704 13 273 0.0 0.0 0.23 0.86 0.66 100 1034.7
20260510000205 13 273 0.0 0.0 0.36 0.89 0.66 100 1034.8
20260509235204 13 273 0.0 0.0 0.48 0.94 0.66 100 1034.5
20260509234705 13 273 0.0 0.0 0.48 0.94 0.66 100 1034.6
20260509234204 13 273 0.0 0.0 0.48 0.94 0.66 100 1034.7
20260509233705 12 273 0.0 0.0 0.48 0.94 0.66 100 1035.0
20260509233204 12 271 0.0 0.0 0.43 0.89 0.61 100 1035.3
20260509232205 13 289 0.0 0.0 0.36 0.81 0.53 100 1035.3
20260509231704 13 263 0.0 0.0 0.33 0.79 0.51 100 1035.2
20260509231204 13 287 0.0 0.0 0.30 0.76 0.48 100 1035.1
20260509230704 13 273 0.0 0.0 0.25 0.71 0.43 100 1035.0
20260509230205 15 327 0.0 0.0 0.13 0.58 0.30 100 1035.2
20260509225705 18 296 0.0 0.0 0.00 0.46 0.18 96 1034.7
20260509225204 20 250 0.0 0.0 0.00 0.46 0.18 93 1033.0
20260509224704 20 215 0.0 0.0 0.00 0.46 0.18 92 1032.4
20260509224205 20 206 0.0 0.0 0.00 0.46 0.18 92 1032.3
20260509223705 20 209 0.0 0.0 0.00 0.46 0.18 93 1032.3
20260509223204 20 206 0.0 0.0 0.00 0.46 0.18 93 1032.3
20260509222705 20 204 0.0 0.0 0.00 0.46 0.18 93 1032.1
20260509222204 20 191 0.0 0.0 0.00 0.46 0.18 94 1032.1
20260509221704 20 186 0.0 0.0 0.00 0.46 0.18 92 1032.0
20260509221204 20 191 0.0 0.0 0.00 0.46 0.18 93 1031.9
20260509215704 20 178 0.0 0.0 0.00 0.46 0.18 93 1031.9
20260509215205 20 199 0.0 0.0 0.00 0.46 0.18 93 1031.8
20260509214704 20 191 0.0 0.0 0.00 0.46 0.18 93 1031.8
20260509214205 21 189 0.0 0.0 0.00 0.46 0.18 92 1031.6
20260509213704 21 189 0.0 0.0 0.00 0.46 0.18 92 1031.6
20260509212704 21 215 0.0 0.0 0.00 0.46 0.18 92 1031.7
20260509212204 21 211 0.0 0.0 0.00 0.46 0.18 91 1031.8
20260509211705 21 195 0.0 0.0 0.00 0.46 0.18 93 1031.9
20260509211204 21 195 0.0 0.0 0.00 0.46 0.18 92 1031.9
20260509210704 21 185 0.0 0.0 0.00 0.46 0.18 91 1032.0
20260509210204 21 192 0.0 0.0 0.00 0.46 0.18 93 1032.1
20260509205704 21 219 0.0 0.0 0.00 0.46 0.18 93 1032.3
20260509205205 21 201 0.0 0.0 0.00 0.46 0.18 92 1032.4
20260509204205 20 194 0.0 0.0 0.00 0.46 0.18 94 1032.5
20260509203704 21 201 0.0 0.0 0.00 0.46 0.18 93 1032.6
20260509203205 21 203 0.0 0.0 0.00 0.46 0.18 92 1032.7
20260509202704 21 203 0.0 0.0 0.00 0.46 0.18 93 1032.8
20260509202205 20 204 0.0 0.0 0.00 0.46 0.18 93 1032.8
20260509201704 21 179 0.0 0.0 0.00 0.46 0.18 94 1032.8
20260509200704 21 211 0.0 0.0 0.00 0.46 0.18 93 1033.0
20260509195705 20 194 0.0 0.0 0.00 0.46 0.18 95 1033.3
20260509195204 20 190 0.0 0.0 0.00 0.46 0.18 95 1033.3
20260509194705 20 189 0.0 0.0 0.00 0.46 0.18 95 1033.3
20260509194204 21 176 0.0 0.0 0.00 0.46 0.18 95 1033.4
20260509193704 20 197 0.0 0.0 0.00 0.46 0.18 95 1033.5
20260509193204 20 188 0.0 0.0 0.00 0.46 0.18 96 1033.6
20260509192705 20 200 0.0 0.0 0.00 0.46 0.18 96 1033.7
20260509192204 20 203 0.0 0.0 0.00 0.46 0.18 95 1033.7
20260509191704 20 186 0.0 0.0 0.00 0.46 0.18 95 1033.7
20260509191204 20 200 0.0 0.0 0.00 0.46 0.18 96 1033.8
20260509190704 20 199 0.0 0.0 0.00 0.46 0.18 95 1033.8
20260509190204 20 218 0.0 0.0 0.00 0.46 0.18 96 1033.9
20260509185705 20 204 0.0 0.0 0.00 0.46 0.18 96 1033.8
20260509185204 20 208 0.0 0.0 0.00 0.46 0.18 97 1033.6
20260509184704 20 187 0.0 0.0 0.00 0.46 0.18 96 1033.9
20260509184204 20 187 0.0 0.0 0.00 0.46 0.18 98 1033.9
20260509183705 20 186 0.0 0.0 0.00 0.46 0.18 97 1033.9
20260509183204 20 184 0.0 0.0 0.00 0.46 0.18 99 1034.0
20260509182205 19 217 0.0 0.0 0.00 0.46 0.18 99 1034.1
20260509181205 19 202 0.0 0.0 0.00 0.46 0.18 99 1034.1
20260509180704 19 204 0.0 0.0 0.00 0.46 0.18 97 1034.0
20260509180205 20 207 0.0 0.0 0.00 0.46 0.18 98 1034.1
20260509175204 19 218 0.0 0.0 0.00 0.46 0.18 99 1034.1
20260509174204 19 224 0.0 0.0 0.00 0.46 0.18 97 1034.3
20260509173704 19 218 0.0 0.0 0.00 0.46 0.18 100 1034.3
20260509173204 18 175 0.0 0.0 0.00 0.46 0.18 99 1034.4
20260509172705 18 187 0.0 0.0 0.00 0.46 0.18 100 1034.5
20260509172204 18 220 0.0 0.0 0.00 0.46 0.18 100 1034.5
20260509171704 18 201 0.0 0.0 0.00 0.46 0.18 100 1034.4
20260509170705 18 254 0.0 0.0 0.00 0.46 0.18 100 1034.3
20260509170205 18 198 0.0 0.0 0.00 0.46 0.18 100 1034.4
20260509165704 18 241 0.0 0.0 0.00 0.46 0.18 99 1034.5
20260509165204 18 203 0.0 0.0 0.00 0.46 0.18 100 1034.6
20260509164704 18 205 0.0 0.0 0.00 0.46 0.18 100 1034.7
20260509164204 18 212 0.0 0.0 0.00 0.46 0.18 100 1034.7
20260509163705 18 212 0.0 0.0 0.00 0.46 0.18 100 1034.8
20260509163204 18 246 0.0 0.0 0.00 0.46 0.18 100 1034.9
20260509162704 17 204 0.0 0.0 0.00 0.46 0.18 100 1035.0
20260509161704 17 208 0.0 0.0 0.00 0.46 0.18 100 1035.3
20260509161204 16 248 0.0 0.0 0.00 0.46 0.18 99 1035.3
20260509160704 16 248 0.0 0.0 0.00 0.46 0.18 100 1035.3
20260509160204 16 242 0.0 0.0 0.00 0.46 0.18 98 1035.4
20260509155704 16 243 0.0 0.0 0.00 0.46 0.18 99 1035.3
20260509155205 15 224 0.0 0.0 0.00 0.46 0.18 98 1035.2
20260509154704 16 223 0.0 0.0 0.00 0.46 0.18 99 1035.2
20260509153704 15 211 0.0 0.0 0.00 0.46 0.18 98 1035.2
20260509152704 15 202 0.0 0.0 0.00 0.46 0.18 99 1035.3
20260509152204 15 203 0.0 0.0 0.00 0.46 0.18 99 1035.4
20260509151705 15 196 0.0 0.0 0.00 0.46 0.18 98 1035.4
20260509151204 15 188 0.0 0.0 0.00 0.46 0.18 99 1035.5
20260509150704 14 188 0.0 0.0 0.00 0.46 0.18 99 1035.6
20260509150204 14 188 0.0 0.0 0.00 0.46 0.18 99 1035.7
20260509145704 13 189 0.0 0.0 0.00 0.46 0.18 99 1035.7
20260509145205 13 189 0.0 0.0 0.00 0.46 0.18 98 1035.7
20260509144704 13 189 0.0 0.0 0.00 0.46 0.18 98 1035.7
20260509144204 13 189 0.0 0.0 0.00 0.46 0.18 98 1035.7
20260509143705 13 189 0.0 0.0 0.00 0.46 0.18 97 1035.6
20260509143204 13 189 0.0 0.0 0.00 0.46 0.18 97 1035.6
20260509142705 13 189 0.0 0.0 0.00 0.46 0.18 97 1035.5
20260509142204 13 189 0.0 0.0 0.00 0.46 0.18 96 1035.7
20260509141704 13 189 0.0 0.0 0.00 0.46 0.18 96 1035.7
20260509141204 12 189 0.0 0.0 0.00 0.46 0.18 96 1035.7
20260509140705 12 189 0.0 0.0 0.00 0.46 0.18 96 1035.6
20260509140204 12 189 0.0 0.0 0.00 0.46 0.18 96 1035.7
20260509135704 12 189 0.0 0.0 0.00 0.46 0.18 96 1035.7
20260509135205 12 189 0.0 0.0 0.00 0.46 0.18 96 1035.7
20260509134704 12 189 0.0 0.0 0.00 0.46 0.18 96 1035.7
20260509134204 12 189 0.0 0.0 0.00 0.46 0.18 96 1035.7
20260509133704 12 189 0.0 0.0 0.00 0.46 0.18 96 1035.7
20260509133204 12 189 0.0 0.0 0.00 0.46 0.18 96 1035.7
20260509132704 12 189 0.0 0.0 0.00 0.46 0.18 96 1035.7
20260509132204 12 189 0.0 0.0 0.00 0.46 0.18 96 1035.8
20260509131705 12 189 0.0 0.0 0.00 0.46 0.18 96 1035.8
20260509131204 12 189 0.0 0.0 0.00 0.46 0.18 96 1035.8
20260509130205 11 189 0.0 0.0 0.00 0.46 0.18 96 1035.9
20260509125705 11 189 0.0 0.0 0.00 0.46 0.18 96 1035.9
20260509125204 11 189 0.0 0.0 0.00 0.46 0.18 96 1035.9
20260509124704 11 189 0.0 0.0 0.00 0.46 0.18 96 1035.9
20260509123705 11 189 0.0 0.0 0.00 0.46 0.18 96 1036.0
20260509123204 11 190 0.0 0.0 0.00 0.46 0.18 96 1036.1
20260509122704 11 190 0.0 0.0 0.00 0.46 0.18 96 1036.1
20260509121704 11 190 0.0 0.0 0.00 0.46 0.18 96 1036.3
20260509121205 11 190 0.0 0.0 0.00 0.46 0.18 96 1036.3
20260509120704 11 189 0.0 0.0 0.00 0.46 0.18 96 1036.3
20260509120205 11 189 0.0 0.0 0.00 0.46 0.18 96 1036.3
20260509115704 11 189 0.0 0.0 0.00 0.46 0.18 96 1036.3
20260509114705 11 189 0.0 0.0 0.00 0.46 0.18 96 1036.3
20260509114204 11 190 0.0 0.0 0.00 0.46 0.18 96 1036.3
20260509113704 11 190 0.0 0.0 0.00 0.46 0.18 96 1036.2
20260509113204 11 189 0.0 0.0 0.00 0.46 0.18 96 1036.3
20260509112704 11 190 0.0 0.0 0.00 0.46 0.18 96 1036.2
20260509112204 11 190 0.0 0.0 0.00 0.46 0.18 96 1036.2
20260509111204 11 190 0.0 0.0 0.00 0.46 0.18 96 1036.1
20260509110704 11 190 0.0 0.0 0.00 0.46 0.18 97 1036.1
20260509110204 11 190 0.0 0.0 0.00 0.46 0.18 96 1036.1
20260509105705 11 190 0.0 0.0 0.00 0.46 0.18 96 1036.1
20260509105204 11 190 0.0 0.0 0.00 0.46 0.18 96 1036.1
20260509104704 11 190 0.0 0.0 0.00 0.46 0.18 96 1036.0
20260509104204 11 190 0.0 0.0 0.00 0.46 0.18 96 1036.1
20260509103704 11 190 0.0 0.0 0.00 0.46 0.18 96 1036.2
20260509103205 11 190 0.0 0.0 0.00 0.46 0.18 96 1036.1
20260509102704 11 190 0.0 0.0 0.00 0.46 0.18 96 1036.1
20260509102205 11 190 0.0 0.0 0.00 0.46 0.18 96 1036.0
20260509101704 11 190 0.0 0.0 0.00 0.46 0.18 96 1036.1
20260509100705 10 190 0.0 0.0 0.00 0.46 0.18 96 1036.2
20260509100204 10 190 0.0 0.0 0.00 0.46 0.18 96 1036.2
20260509095704 10 190 0.0 0.0 0.00 0.46 0.18 97 1036.2
20260509095204 10 190 0.0 0.0 0.00 0.46 0.18 96 1036.3
20260509094704 10 190 0.0 0.0 0.00 0.46 0.18 96 1036.4
20260509094205 10 190 0.0 0.0 0.00 0.46 0.18 96 1036.4
20260509093704 10 190 0.0 0.0 0.00 0.46 0.18 96 1036.5
20260509093204 10 190 0.0 0.0 0.00 0.46 0.18 96 1036.5
20260509092704 10 190 0.0 0.0 0.00 0.46 0.18 97 1036.5
20260509092204 10 190 0.0 0.0 0.00 0.46 0.18 96 1036.6
20260509091704 10 190 0.0 0.0 0.00 0.46 0.18 97 1036.6
20260509091204 10 190 0.0 0.0 0.00 0.46 0.18 97 1036.6
20260509090705 10 190 0.0 0.0 0.00 0.46 0.18 97 1036.6
20260509090204 10 190 0.0 0.0 0.00 0.46 0.18 97 1036.7
20260509085705 10 190 0.0 0.0 0.00 0.46 0.18 97 1036.7
20260509084705 10 190 0.0 0.0 0.00 0.46 0.18 97 1036.9
20260509083204 10 190 0.0 0.0 0.00 0.46 0.18 97 1036.8
20260509082204 10 190 0.0 0.0 0.00 0.46 0.18 97 1036.8
20260509081705 10 190 0.0 0.0 0.00 0.46 0.18 97 1036.8
20260509081204 10 190 0.0 0.0 0.00 0.46 0.18 97 1036.8
20260509080204 10 190 0.0 0.0 0.00 0.46 0.18 97 1036.9
20260509075705 10 190 0.0 0.0 0.00 0.46 0.18 97 1036.9
20260509075204 10 190 0.0 0.0 0.00 0.46 0.18 97 1036.9
20260509074704 10 190 0.0 0.0 0.00 0.46 0.18 97 1036.9
20260509073705 10 190 0.0 0.0 0.00 0.46 0.18 97 1037.0
20260509073204 10 191 0.0 0.0 0.00 0.46 0.18 97 1037.0
20260509072704 10 191 0.0 0.0 0.00 0.46 0.18 97 1037.0
20260509072204 10 191 0.0 0.0 0.00 0.46 0.18 97 1037.0
20260509071204 10 191 0.0 0.0 0.00 0.46 0.18 97 1037.1
20260509070704 10 191 0.0 0.0 0.00 0.46 0.18 97 1037.1
20260509070204 10 191 0.0 0.0 0.00 0.46 0.18 97 1037.2
20260509065705 10 191 0.0 0.0 0.03 0.46 0.18 97 1037.2
20260509065204 10 191 0.0 0.0 0.03 0.46 0.18 97 1037.2
20260509064204 10 191 0.0 0.0 0.05 0.46 0.18 97 1037.2
20260509063704 10 191 0.0 0.0 0.05 0.46 0.18 97 1037.2
20260509063204 10 191 0.0 0.0 0.05 0.46 0.18 97 1037.2
20260509062704 10 191 0.0 0.0 0.05 0.46 0.18 97 1037.3
20260509062204 10 191 0.0 0.0 0.05 0.46 0.18 97 1037.3
20260509061705 10 191 0.0 0.0 0.05 0.46 0.18 97 1037.3
20260509061204 10 191 0.0 0.0 0.05 0.46 0.18 97 1037.4
20260509060204 10 191 0.0 0.0 0.08 0.46 0.18 97 1037.5
20260509055204 10 191 0.0 0.0 0.08 0.43 0.15 97 1037.7
20260509054204 10 191 0.0 0.0 0.10 0.41 0.13 97 1037.8
20260509053704 10 191 0.0 0.0 0.10 0.41 0.13 97 1037.7
20260509053204 10 191 0.0 0.0 0.10 0.41 0.13 97 1037.8
20260509052704 10 191 0.0 0.0 0.10 0.41 0.13 97 1037.9
20260509052204 10 204 0.0 0.0 0.13 0.41 0.13 97 1037.9
20260509051705 10 205 0.0 0.0 0.13 0.41 0.13 97 1038.0
20260509051204 10 205 0.0 0.0 0.13 0.41 0.13 97 1038.0
20260509050704 10 205 0.0 0.0 0.10 0.38 0.10 97 1038.0
20260509050204 10 205 0.0 0.0 0.10 0.38 0.10 97 1038.1
20260509045704 10 205 0.0 0.0 0.10 0.38 0.10 97 1038.2
20260509044704 10 205 0.0 0.0 0.03 0.30 0.03 97 1038.3
20260509044204 10 205 0.0 0.0 0.03 0.30 0.03 97 1038.2
20260509043705 10 206 0.0 0.0 0.03 0.30 0.03 97 1038.2
20260509043204 10 206 0.0 0.0 0.03 0.30 0.03 97 1038.3
20260509042704 10 206 0.0 0.0 0.03 0.30 0.03 97 1038.5
20260509042205 10 206 0.0 0.0 0.00 0.28 0.00 97 1038.6